Location: Pettit
(39.0209°N, 79.7181°W)
Time: 04:05:23
(UTC+00:00)

Hubble Space Telescope - Pass Details

Date: 27 April 2026
Orbit: 473 x 476 km, 28.5° (Epoch: 11 May)

Event Time Altitude Azimuth Distance (km) Brightness Sun altitude
Rises 00:45:10 0° 234° (SW) 2,505 4.6 -7.7°
Reaches altitude 10° 00:48:03 10° 211° (SSW) 1,629 3.3 -8.2°
Maximum altitude 00:50:18 15° 174° (S) 1,338 2.5 -8.6°
Enters shadow 00:52:26 10° 138° (SE) 1,606 2.6 -9.0°
